Location: Unspecified
(38.0989°N, 0.6729°W)
Time: 22:21:01
(UTC+01:00)

Tiangong 1 - Visible Passes

Search period start: 21 February 2017 00:00
Search period end: 03 March 2017 00:00
Orbit: 338 x 363 km, 42.8° (Epoch: 21 February)

Date Brightness Start Highest point End Pass type
(mag) Time Alt. Az. Time Alt. Az. Time Alt. Az.
21 Feb 2.4 06:19:56 24° S 06:20:59 31° SSE 06:23:38 10° E visible
22 Feb 0.8 06:44:31 21° WSW 06:46:17 89° SSE 06:49:14 10° ENE visible
23 Feb 3.7 05:37:23 20° E 05:37:23 20° E 05:38:30 10° E visible
23 Feb 1.5 07:08:54 10° W 07:11:43 43° NNW 07:14:35 10° ENE visible
24 Feb 1.6 06:01:38 50° NE 06:01:38 50° NE 06:03:56 10° ENE visible
25 Feb 1.6 06:25:44 34° NW 06:26:21 39° NNW 06:29:09 10° ENE visible
26 Feb 4.5 05:18:15 11° ENE 05:18:15 11° ENE 05:18:25 10° ENE visible
26 Feb 2.1 06:49:44 14° WNW 06:51:45 30° N 06:54:25 10° ENE visible
27 Feb 3.2 05:42:10 22° NE 05:42:10 22° NE 05:43:31 10° ENE visible
28 Feb 2.2 06:06:01 30° N 06:06:04 30° N 06:08:43 10° ENE visible
01 Mar 2.0 06:29:50 20° NW 06:31:19 35° N 06:34:03 10° ENE visible
02 Mar 4.1 05:22:08 15° ENE 05:22:08 15° ENE 05:22:49 10° ENE visible
02 Mar 1.2 06:53:37 11° WNW 06:56:25 61° NNE 06:59:19 10° E visible
